Notices

What's New in latest Release from April 7th, 2021:

- Updated Glossary, including Speed of Maximum Gust, and Total Hourly Precipitation

- Updated national and regional climate services offices contacts and prices information

- Addition of station inventory lists for 1981-2010, 1971-2000, and 1961-1990 Normals.

If you haven't already, please take our survey and provide feedback about our website: https://eccc.sondage-survey.ca/f/LanguageSelection.aspx?s=442ca660-fcf1-47c0-95a9-59707d6fd709

Hourly Data Report for January 04, 2004

SHERBROOKE A
QUEBEC

45°26'00.000" N
71°41'00.000" W
241.40 m
7028124
71610
YSC

Download Data

Hourly Data (January 2004)
Hourly Data Report for January 4, 2004
TIME
LST
Temp Definition
°C
Dew Point Definition
°C
Rel Hum Definition
%
Precip. Amount Definition
mm

Wind Dir Definition
10's deg

Wind Spd Definition
km/h
Visibility Definition
km
Stn Press Definition
kPa
Hmdx Definition


Wind Chill Definition


Weather Definition


00:00 3.0 2.2 94   26 6 4.8 97.89      
01:00 5.0 3.1 87   21 11 15.0 97.86      
02:00 4.2 1.3 81   24 13 15.0 97.92      
03:00 4.6 -1.5 65   26 19 15.0 97.94      
04:00 3.8 -1.7 67   27 22 15.0 97.97      
05:00 3.4 -2.2 67   25 22 15.0 97.99      
06:00 2.5 -2.8 68   26 19 15.0 98.07      
07:00 2.1 -2.7 70   26 17 15.0 98.19      
08:00 1.6 -2.6 74   27 17 24.1 98.31     Mostly Cloudy
09:00 1.2 -4.3 67   27 19 24.1 98.34     Cloudy
10:00 0.7 -5.1 65   26 20 24.1 98.43     Mostly Cloudy
11:00 0.4 -5.0 67   28 24 24.1 98.48     Cloudy
12:00 -0.2 -5.4 68   28 24 24.1 98.48   -6 Cloudy
13:00 -1.2 -6.1 69   29 20 24.1 98.46   -7 Cloudy
14:00 -1.7 -6.8 68   31 15 24.1 98.58   -7 Cloudy
15:00 -2.1 -7.6 66   30 19 19.3 98.65   -8 Snow Showers
16:00 -2.5 -8.0 66   30 17 24.1 98.71   -8 Cloudy
17:00 -3.3 -8.3 68   28 15 19.3 98.79   -8 Snow Showers
18:00 -3.5 -9.1 65   29 11 15.0 98.82   -8  
19:00 -3.9 -9.9 63   30 13 15.0 98.92   -9  
20:00 -4.8 -11.1 61   31 17 15.0 98.88   -11  
21:00 -5.6 -11.5 63   32 15 15.0 98.98   -11  
22:00 -6.3 -11.8 65   34 7 15.0 98.97   -10  
23:00 -6.7 -11.6 68   32 4 15.0 98.98   -9  

Notes on Data Quality.

Legend

  • E = Estimated
  • M = Missing
  • NA = Not Available*
  • [empty] = Indicates an unobserved value
Date modified: